www.pogodaiklimat.ru

Погода и климат >> Архив погоды >> Таиланд >> Ломсак


ПОГОДА в Ломсаке

  • Прогноз погоды в Ломсаке
  • Монитор погоды в Ломсаке

АРХИВ ПОГОДЫ в Ломсаке

Время (UTC), дата Ветер
(напр.,м/с)
 
Видим.   Явления Облачность Т
(С)
Тd
(С)
f
(%)
Тe
(С)
Тes
(С)
Комфортность P
(гПа)
Po
(гПа)
Тmin
(С)
Tmax
(С)
R
(мм)
R24
(мм)
S
(см)
18 18.05 штиль 0 8000 м дымка ясно +30.0 +23.5 68 +41 +41 опасность
перегрева
1006.3 990.0
21 18.05 штиль 0 8000 м дымка ясно +27.5 +23.1 77 +37 +37 очень
душно
1005.2 988.8
00 19.05 штиль 0 10 км ясно +28.0 +23.6 77 +38 +41 очень
душно
1007.9 991.5 +26.0
03 19.05 штиль 0 10 км ясно +34.0 +23.2 53 +44 +66 опасность
перегрева
1009.0 992.9
06 19.05 штиль 0 10 км 3/3 600 м
[Cu hum]
+36.8 +23.9 48 +48 +68 опасность
перегрева
1006.0 990.1
09 19.05 штиль 0 10 км 3/3 600 м
[Cu hum]
+39.0 +23.0 40 +48 +56 опасность
перегрева
1004.0 988.3
12 19.05 штиль 0 10 км 3/3 600 м
[Cu hum]
+35.5 +23.8 51 +47 +47 опасность
перегрева
1004.5 988.6 +39.2
15 19.05 штиль 0 8000 м дымка ясно +32.2 +23.2 59 +43 +43 опасность
перегрева
1006.8 990.7
18 19.05 штиль 0 8000 м дымка ясно +30.0 +21.9 62 +39 +39 очень
душно
1007.2 990.9
21 19.05 штиль 0 8000 м дымка ясно +28.5 +22.1 68 +37 +37 очень
душно
1006.5 990.2
00 20.05 штиль 0 7000 м дымка ясно +28.5 +22.6 70 +37 +40 очень
душно
1008.6 992.3 +27.2
03 20.05 ЮЗ 2 8000 м мгла ясно +34.7 +23.2 51 +45 +61 опасность
перегрева
1009.3 993.2
06 20.05 штиль 0 8000 м мгла 3/3 600 м
[Cu med, cong]
+37.2 +23.9 47 +49 +69 опасность
перегрева
1007.0 991.1
09 20.05 штиль 0 10 км 10/5 600 м
[Cb cap Ac lent Cs]
+36.3 +24.3 50 +48 +51 опасность
перегрева
1003.8 987.9
12 20.05 штиль 0 8000 м мгла 4/3 600 м
[Cu hum Cs]
+32.0 +21.0 52 +39 +39 очень
душно
1005.0 988.9 +38.7
15 20.05 штиль 0 8000 м дымка ясно +29.8 +23.4 69 +40 +40 очень
душно
1008.0 991.7
18 20.05 штиль 0 7000 м дымка ясно +28.3 +23.5 75 +38 +38 очень
душно
1007.4 991.1
21 20.05 штиль 0 7000 м дымка ясно +27.2 +24.0 83 +38 +38 очень
душно
1007.4 990.9
00 21.05 штиль 0 7000 м дымка 3/0
[Cs]
+27.2 +24.3 84 +38 +40 очень
душно
1008.6 992.1 +25.9
03 21.05 штиль 0 8000 м мгла ясно +32.8 +23.8 59 +44 +66 опасность
перегрева
1008.6 992.5
06 21.05 Ю 4 8000 м мгла 8/5 600 м
[Cb cap Ac lent Cs]
+37.3 +23.3 45 +48 +53 опасность
перегрева
1005.7 989.8
09 21.05 СЗ 4 10 км 10/5 600 м
[Sc Ac lent Cs]
+28.8 +21.7 66 +37 +38 очень
душно
1005.9 989.6
12 21.05 штиль 0 8000 м дымка 10/5 600 м
[Sc Ac lent Cs]
+27.1 +22.2 75 +35 +35 очень
душно
1007.6 991.2 +37.9
15 21.05 штиль 0 8000 м зарница 10/5 600 м
[Cb cap Ac lent Cs]
+26.8 +22.2 76 +35 +35 очень
душно
1008.1 991.7
18 21.05 ЮЗ 5 6000 м гроза, ливневой дождь 10/6 600 м
[Cb cap Ac As]
+26.5 +22.8 80 +35 +35 очень
душно
1011.3 994.8 3
21 21.05 штиль 0 7000 м слаб. дождь {гроза} 10/6 600 м
[Cu Sc Ac As]
+23.8 +22.6 93 +31 +31 очень
душно
1009.1 992.5 19
00 22.05 штиль 0 8000 м дымка {гроза, дождь} 10/3 600 м
[Sc Ac und Cs]
+24.0 +22.5 91 +31 +32 очень
душно
1009.1 992.4 +23.0 0.1
03 22.05 штиль 0 10 км 8/3 600 м
[Sc Ac lent Cs]
+27.0 +22.6 77 +36 +45 очень
душно
1011.2 994.7
06 22.05 штиль 0 10 км 4/4 600 м
[Sc]
+32.0 +21.7 55 +41 +58 опасность
перегрева
1009.0 992.8
09 22.05 штиль 0 10 км 6/3 600 м
[Cu med, cong Cs]
+33.5 +20.0 45 +40 +46 очень
душно
1005.1 989.1
12 22.05 штиль 0 10 км 8/3 600 м
[Sc Ac lent Cs]
+31.5 +23.6 63 +43 +43 опасность
перегрева
1006.3 990.1 +34.2
15 22.05 штиль 0 8000 м дымка ясно +29.2 +24.2 74 +41 +41 опасность
перегрева
1008.9 992.6
18 22.05 штиль 0 8000 м дымка ясно +28.0 +24.4 81 +39 +39 очень
душно
1008.9 992.5
21 22.05 штиль 0 8000 м дымка 5/3 600 м
[Sc Cs]
+26.0 +23.5 86 +35 +35 очень
душно
1008.6 992.1
00 23.05 штиль 0 10 км 4/4 600 м
[Sc]
+26.2 +24.0 88 +36 +38 очень
душно
1009.9 993.4 +25.0
03 23.05 штиль 0 10 км 3/3 600 м
[Cu hum]
+31.0 +23.8 66 +43 +58 опасность
перегрева
1010.5 994.2
06 23.05 В 3 10 км 8/4 600 м
[Sc Ac lent Cs]
+30.7 +22.3 61 +40 +47 очень
душно
1008.5 992.2
09 23.05 штиль 0 10 км 8/4 600 м
[Sc Ac lent Cs]
+32.6 +22.4 55 +42 +46 опасность
перегрева
1005.7 989.6
12 23.05 Ю 13 8000 м зарница 10/4 600 м
[Cb cap Ac As]
+31.6 +24.0 64 +43 +43 опасность
перегрева
1006.6 990.4 +34.6
15 23.05 штиль 0 7000 м дымка {гроза} 10/4 600 м
[Sc Ac As]
+25.5 +24.5 94 +36 +36 очень
душно
1010.4 993.9 3
18 23.05 штиль 0 7000 м дымка {гроза} 8/4 600 м
[Sc Ac lent Cs]
+25.0 +24.0 94 +34 +34 очень
душно
1009.4 992.9 3
21 23.05 штиль 0 7000 м дымка 5/3 600 м
[Sc Cs]
+24.8 +23.6 93 +34 +34 очень
душно
1008.6 992.1
00 24.05 штиль 0 10 км 3/3 600 м
[Sc Cs]
+25.5 +23.3 88 +34 +36 очень
душно
1009.7 993.1 +24.0 3
03 24.05 штиль 0 10 км 3/3 600 м
[Sc Cs]
+29.0 +23.2 71 +39 +54 опасность
солнечного
удара
1010.5 994.1
06 24.05 штиль 0 10 км 6/3 600 м
[Cb cap Ac lent Ci ing]
+33.5 +24.2 58 +45 +61 опасность
перегрева
1007.6 991.5
09 24.05 штиль 0 10 км {гроза} 8/4 600 м
[Cb cap Ac As Ci ing]
+27.5 +23.1 77 +37 +41 очень
душно
1006.2 989.8
12 24.05 штиль 0 8000 м {гроза} 5/3 600 м
[Sc Ac As Cs]
+27.2 +23.6 81 +37 +37 очень
душно
1006.4 989.9 +33.8
15 24.05 штиль 0 8000 м дымка 3/3 600 м
[Sc Cs]
+26.0 +23.8 88 +36 +36 очень
душно
1008.2 991.7
18 24.05 штиль 0 8000 м дымка ясно +25.5 +23.6 89 +35 +35 очень
душно
1007.0 990.4
21 24.05 штиль 0 8000 м дымка ясно +25.0 +23.5 91 +34 +34 очень
душно
1007.1 990.5
00 25.05 штиль 0 10 км 8/4 600 м
[Sc Ac As Cs]
+25.5 +24.0 91 +35 +36 очень
душно
1008.2 991.6 +24.5
03 25.05 штиль 0 10 км 3/3 600 м
[Sc Cs]
+30.0 +24.3 72 +42 +57 опасность
перегрева
1008.0 991.7
06 25.05 штиль 0 10 км 3/3 600 м
[Cu med, cong Cs]
+34.0 +24.3 57 +46 +66 опасность
перегрева
1005.2 989.2
09 25.05 штиль 0 10 км {гроза} 8/4 600 м
[Cb cap Ac As Ci ing]
+32.5 +23.1 58 +43 +47 опасность
перегрева
1002.8 986.8
12 25.05 штиль 0 8000 м {гроза} 5/3 600 м
[Sc Ac lent Cs]
+31.0 +23.8 66 +43 +43 опасность
перегрева
1004.0 987.9 +35.0
15 25.05 штиль 0 8000 м дымка ясно +29.0 +23.9 74 +40 +40 очень
душно
1005.9 989.6

 

Местоположение метеостанции Ломсак (Таиланд): широта 16.77 долгота 101.25 высота над уровнем моря 145 м.

В архиве по умолчанию представлена погода в Ломсаке за последнюю неделю. Архивные данные за месяц целиком и за предыдущие месяцы, начиная с января 2011 года, Вы можете получить, выбрав интересующий диапазон дат из раскрывающегося списка и нажав кнопку "Ввод!".


*Определитесь, кто Вы:
робот инопланетянин человек

Внимание! Время в таблицах - всемирное. Для получения местного времени необходимо прибавить поправку, которая равна 7 ч.

Смотрите также архив погоды в соседних городах и на ближайших метеорологических станциях:

Погода в Пхетчабуне (Таиланд) (39 км)
Погода в Лоей Агромете (Таиланд) (87 км)
Погода в Лоэй (Таиланд) (91 км)
Погода в Пхитсанулоке (Таиланд) (105 км)
Погода в Пичит Агромете (Таиланд) (110 км)
Погода в Вичан Бури (Таиланд) (128 км)
Погода в Нонгбуалампху (Таиланд) (136 км)
Погода в Чайяпхуме (Таиланд) (136 км)
Погода в Си Самронг Агромете (Таиланд) (153 км)
Погода в Уттарадите (Таиланд) (154 км)

Пояснения к столбцам:

Ветер - указаны скорость ветра в м/с - средняя за 10 мин, порывы в срок и между сроками (в фигурных скобках) и направление, откуда дует ветер: С - северный, СВ - северо-восточный, В - восточный, ЮВ - юго-восточный, Ю - южный, ЮЗ - юго-западный, З - западный, СЗ - северо-западный.
Видимость - горизонтальная дальность видимости в метрах или километрах. При видимости от 1 до 10 км при отсутствии осадков обычно наблюдается дымка, при ухудшении видимости до 1 км и менее - туман. В сухую погоду видимость может ухудшаться дымом, пылью или мглою.
Явления - указаны атмосферные явления, наблюдавшиеся в срок или в последний час перед сроком; фигурными скобками обозначены явления, наблюдавшиеся между сроками (за 1-3 часа до срока); квадратными скобками обозначены град или гололедные отложения с указанием их диаметра в мм.
Облачность - указаны через наклонную черту общая и нижняя облачность в баллах и высота нижней границы облаков в метрах; квадратными скобками обозначены формы облаков: Ci - перистые, Cs - перисто-слоистые, Cc - перисто-кучевые, Ac - высококучевые, As - высокослоистые, Sc - слоисто-кучевые, Ns - слоисто-дождевые, Cu - кучевые, Cb - кучево-дождевые. Подробнее классификацию облаков см. в Атласе облаков (PDF).
T - Температура воздуха - температура, измеренная на высоте 2 м над землей.
Td - Температура точки росы - температура, при понижении до которой содержащийся в воздухе водяной пар достигнет насыщения.
f - Относительная влажность воздуха - влажноcть воздуха, измеренная на высоте 2 м над землей.
Te - Эффективная температура - температура, которую ощущает одетый по сезону человек в тени. Характеристика душности погоды. При расчете учитывается влияние влажности воздуха и скорости ветра на теплоощущения человека.
Tes - Эффективная температура на солнце - температура, которую ощущает человек, с поправкой на солнечный нагрев. Характеристика знойности погоды. Зависит от высоты солнца над горизонтом, облачности и скорости ветра. Ночью, в пасмурную погоду, а также при ветре 12 м/с и более поправка равна нулю.
P - Атмосферное давление - приведенное к уровню моря атмосферное давление.
Po - Атмосферное давление - измеренное на уровне метеостанции атмосферное давление.
Tmin - Минимальная температура - минимум температуры воздуха на высоте 2 м над землей.
Tmax - Максимальная температура - максимум температуры воздуха на высоте 2 м над землей.
R - Количество осадков - Количество выпавших осадков за период времени, мм. При наведении курсора мыши на число - период времени, за который выпало указанное количество осадков.
R24 - Количество осадков - Количество выпавших осадков за 24 часа, мм.
S - Снежный покров - Высота снежного покрова, см. При наведении курсора мыши на число - состояние снежного покрова и степень покрытия местности в баллах.